• In Deutschland
  • Länderverzeichnis
  • Für 7 Tage
  • Wassertemperatur
  • Satellitenkarten
  • Wetterkarte
  • Widgets
  • user-avatar
    Anmelden

    Stündliche Wetter Bretten

    Heute, 20 Februar, Dienstag

    Zeit Temperatur Niederschläge Wind Luftdruck Luftfeuchtigkeit
    00:00 -2°C° 0 mm 0 m/S 745 mmHg 82%
    01:00 -2°C° 0 mm 0 m/S 745 mmHg 83%
    02:00 -2°C° 0 mm 0 m/S 745 mmHg 83%
    03:00 -2°C° 0 mm 0 m/S 744 mmHg 83%
    04:00 -2°C° 0 mm 0 m/S 744 mmHg 84%
    05:00 -2°C° 0 mm 0 m/S 744 mmHg 84%
    06:00 -2°C° 0 mm 0 m/S 744 mmHg 84%
    07:00 -3°C° 0 mm 0 m/S 744 mmHg 84%
    08:00 0°C° 0 mm 1 m/S 744 mmHg 79%
    09:00 +1°C° 0 mm 1 m/S 744 mmHg 73%
    10:00 +2°C° 0 mm 1 m/S 744 mmHg 68%
    11:00 +2°C° 0 mm 1 m/S 744 mmHg 63%
    12:00 +2°C° 0 mm 2 m/S 744 mmHg 59%
    13:00 +3°C° 0 mm 2 m/S 744 mmHg 55%
    14:00 +3°C° 0 mm 2 m/S 744 mmHg 55%
    15:00 +3°C° 0 mm 2 m/S 744 mmHg 55%
    16:00 +2°C° 0 mm 3 m/S 744 mmHg 56%
    17:00 +2°C° 0 mm 2 m/S 745 mmHg 61%
    18:00 +1°C° 0 mm 2 m/S 745 mmHg 67%
    19:00 -1°C° 0 mm 2 m/S 745 mmHg 73%
    20:00 -1°C° 0 mm 2 m/S 746 mmHg 75%
    21:00 -2°C° 0 mm 2 m/S 746 mmHg 77%
    22:00 -2°C° 0 mm 2 m/S 746 mmHg 79%
    23:00 -2°C° 0 mm 2 m/S 746 mmHg 81%

    Morgen, 21 Februar, Mittwoch

    Zeit Temperatur Niederschläge Wind Luftdruck Luftfeuchtigkeit
    00:00 -2°C° 0 mm 2 m/S 747 mmHg 83%
    01:00 -2°C° 0 mm 2 m/S 747 mmHg 85%
    02:00 -2°C° 0 mm 2 m/S 747 mmHg 86%
    03:00 -3°C° 0 mm 2 m/S 747 mmHg 87%
    04:00 -3°C° 0 mm 2 m/S 747 mmHg 88%
    05:00 -3°C° 0 mm 2 m/S 747 mmHg 88%
    06:00 -3°C° 0 mm 2 m/S 747 mmHg 87%
    07:00 -3°C° 0 mm 2 m/S 747 mmHg 87%
    08:00 -2°C° 0 mm 2 m/S 748 mmHg 80%
    09:00 -1°C° 0 mm 3 m/S 748 mmHg 74%
    10:00 0°C° 0 mm 3 m/S 748 mmHg 67%
    11:00 +1°C° 0 mm 3 m/S 747 mmHg 62%
    12:00 +1°C° 0 mm 4 m/S 747 mmHg 57%
    13:00 +3°C° 0 mm 4 m/S 747 mmHg 52%
    14:00 +3°C° 0 mm 4 m/S 747 mmHg 51%
    15:00 +3°C° 0 mm 4 m/S 747 mmHg 50%
    16:00 +3°C° 0 mm 4 m/S 746 mmHg 49%
    17:00 +1°C° 0 mm 4 m/S 746 mmHg 55%
    18:00 0°C° 0 mm 4 m/S 747 mmHg 60%
    19:00 -1°C° 0 mm 3 m/S 747 mmHg 66%
    20:00 -1°C° 0 mm 3 m/S 747 mmHg 67%
    21:00 -2°C° 0 mm 3 m/S 747 mmHg 69%
    22:00 -3°C° 0 mm 4 m/S 747 mmHg 70%
    23:00 -2°C° 0 mm 3 m/S 747 mmHg 71%

    übermorgen, 22 Februar, Donnerstag

    Zeit Temperatur Niederschläge Wind Luftdruck Luftfeuchtigkeit
    00:00 -2°C° 0 mm 3 m/S 747 mmHg 71%
    01:00 -4°C° 0 mm 3 m/S 746 mmHg 72%
    02:00 -4°C° 0 mm 4 m/S 746 mmHg 72%
    03:00 -4°C° 0 mm 4 m/S 746 mmHg 72%
    04:00 -4°C° 0 mm 4 m/S 746 mmHg 72%
    05:00 -4°C° 0 mm 4 m/S 746 mmHg 72%
    06:00 -4°C° 0 mm 4 m/S 745 mmHg 71%
    07:00 -4°C° 0 mm 4 m/S 745 mmHg 71%
    08:00 -4°C° 0 mm 5 m/S 745 mmHg 66%
    09:00 -4°C° 0 mm 5 m/S 746 mmHg 62%
    10:00 -3°C° 0 mm 6 m/S 746 mmHg 58%
    11:00 -2°C° 0 mm 6 m/S 745 mmHg 54%
    12:00 -1°C° 0 mm 6 m/S 745 mmHg 51%
    13:00 +1°C° 0 mm 6 m/S 745 mmHg 48%
    14:00 +1°C° 0 mm 6 m/S 745 mmHg 48%
    15:00 +1°C° 0 mm 6 m/S 744 mmHg 49%
    16:00 +1°C° 0 mm 6 m/S 744 mmHg 49%
    17:00 -1°C° 0 mm 6 m/S 744 mmHg 52%
    18:00 -1°C° 0 mm 5 m/S 745 mmHg 55%
    19:00 -1°C° 0 mm 5 m/S 745 mmHg 58%
    20:00 -2°C° 0 mm 5 m/S 745 mmHg 59%
    21:00 -2°C° 0 mm 5 m/S 745 mmHg 59%
    22:00 -4°C° 0 mm 5 m/S 745 mmHg 60%
    23:00 -4°C° 0 mm 5 m/S 745 mmHg 61%

    23 Februar, Freitag

    Zeit Temperatur Niederschläge Wind Luftdruck Luftfeuchtigkeit
    00:00 -4°C° 0 mm 5 m/S 745 mmHg 61%
    01:00 -5°C° 0 mm 5 m/S 745 mmHg 62%
    02:00 -5°C° 0 mm 5 m/S 745 mmHg 61%
    03:00 -5°C° 0 mm 5 m/S 745 mmHg 61%
    04:00 -5°C° 0 mm 5 m/S 745 mmHg 61%
    05:00 -4°C° 0 mm 4 m/S 745 mmHg 61%
    06:00 -4°C° 0 mm 4 m/S 745 mmHg 60%
    07:00 -4°C° 0 mm 4 m/S 745 mmHg 60%
    08:00 -5°C° 0 mm 5 m/S 746 mmHg 57%
    09:00 -4°C° 0 mm 5 m/S 746 mmHg 54%
    10:00 -2°C° 0 mm 5 m/S 746 mmHg 51%
    11:00 -1°C° 0 mm 5 m/S 746 mmHg 48%
    12:00 0°C° 0 mm 5 m/S 746 mmHg 46%
    13:00 +1°C° 0 mm 6 m/S 746 mmHg 43%
    14:00 +1°C° 0 mm 6 m/S 746 mmHg 43%
    15:00 +1°C° 0 mm 6 m/S 746 mmHg 42%
    16:00 +1°C° 0 mm 6 m/S 746 mmHg 42%
    17:00 0°C° 0 mm 5 m/S 747 mmHg 44%
    18:00 -1°C° 0 mm 5 m/S 747 mmHg 47%
    19:00 -2°C° 0 mm 5 m/S 747 mmHg 49%
    20:00 -2°C° 0 mm 5 m/S 747 mmHg 50%
    21:00 -4°C° 0 mm 5 m/S 748 mmHg 51%
    22:00 -4°C° 0 mm 5 m/S 748 mmHg 52%
    23:00 -4°C° 0 mm 5 m/S 748 mmHg 52%

    24 Februar, Samstag

    Zeit Temperatur Niederschläge Wind Luftdruck Luftfeuchtigkeit
    00:00 -5°C° 0 mm 5 m/S 748 mmHg 53%
    01:00 -5°C° 0 mm 5 m/S 748 mmHg 53%
    02:00 -5°C° 0 mm 5 m/S 748 mmHg 53%
    03:00 -5°C° 0 mm 5 m/S 747 mmHg 53%
    04:00 -5°C° 0 mm 5 m/S 747 mmHg 53%
    05:00 -5°C° 0 mm 5 m/S 747 mmHg 52%
    06:00 -5°C° 0 mm 5 m/S 748 mmHg 51%
    07:00 -6°C° 0 mm 5 m/S 748 mmHg 50%
    08:00 -5°C° 0 mm 6 m/S 748 mmHg 45%
    09:00 -4°C° 0 mm 6 m/S 748 mmHg 40%
    10:00 -3°C° 0 mm 7 m/S 748 mmHg 36%
    11:00 -2°C° 0 mm 7 m/S 748 mmHg 33%
    12:00 -1°C° 0 mm 7 m/S 748 mmHg 30%
    13:00 0°C° 0 mm 7 m/S 748 mmHg 28%
    14:00 0°C° 0 mm 7 m/S 748 mmHg 30%
    15:00 0°C° 0 mm 7 m/S 748 mmHg 31%
    16:00 -1°C° 0 mm 7 m/S 747 mmHg 33%
    17:00 -2°C° 0 mm 7 m/S 748 mmHg 37%
    18:00 -3°C° 0 mm 6 m/S 748 mmHg 41%
    19:00 -4°C° 0 mm 6 m/S 748 mmHg 45%
    20:00 -4°C° 0 mm 6 m/S 748 mmHg 46%
    21:00 -5°C° 0 mm 6 m/S 748 mmHg 46%
    22:00 -6°C° 0 mm 7 m/S 749 mmHg 47%
    23:00 -6°C° 0 mm 6 m/S 749 mmHg 47%

    25 Februar, Sonntag

    Zeit Temperatur Niederschläge Wind Luftdruck Luftfeuchtigkeit
    00:00 -6°C° 0 mm 6 m/S 749 mmHg 47%
    01:00 -8°C° 0 mm 6 m/S 749 mmHg 47%
    02:00 -8°C° 0 mm 6 m/S 748 mmHg 45%
    03:00 -8°C° 0 mm 6 m/S 748 mmHg 44%
    04:00 -9°C° 0 mm 6 m/S 748 mmHg 43%
    05:00 -9°C° 0 mm 6 m/S 748 mmHg 42%
    06:00 -9°C° 0 mm 6 m/S 749 mmHg 41%
    07:00 -10°C° 0 mm 6 m/S 749 mmHg 40%
    08:00 -9°C° 0 mm 7 m/S 749 mmHg 39%
    09:00 -9°C° 0 mm 7 m/S 749 mmHg 37%
    10:00 -9°C° 0 mm 7 m/S 749 mmHg 36%
    11:00 -8°C° 0 mm 7 m/S 749 mmHg 34%
    12:00 -7°C° 0 mm 7 m/S 748 mmHg 32%
    13:00 -7°C° 0 mm 7 m/S 748 mmHg 30%
    14:00 -7°C° 0 mm 7 m/S 748 mmHg 30%
    15:00 -6°C° 0 mm 7 m/S 748 mmHg 30%
    16:00 -6°C° 0 mm 7 m/S 747 mmHg 31%
    17:00 -6°C° 0 mm 6 m/S 748 mmHg 34%
    18:00 -8°C° 0 mm 6 m/S 748 mmHg 37%
    19:00 -7°C° 0 mm 5 m/S 748 mmHg 40%
    20:00 -8°C° 0 mm 5 m/S 748 mmHg 41%
    21:00 -8°C° 0 mm 5 m/S 748 mmHg 42%
    22:00 -8°C° 0 mm 5 m/S 748 mmHg 44%
    23:00 -8°C° 0 mm 5 m/S 748 mmHg 44%
    Mehr zeigen